TimeCST,TemperatureF,Dew PointF,Humidity,Sea Level PressureIn,VisibilityMPH,Wind Direction,Wind SpeedMPH,Gust SpeedMPH,PrecipitationIn,Events,Conditions,WindDirDegrees,DateUTC
12:53 AM,-4.0,-22.0,42,30.60,10.0,NW,23.0,-,N/A,,Clear,320,2014-01-06 06:53:00
1:53 AM,-5.1,-20.9,47,30.60,10.0,NW,17.3,-,N/A,,Clear,310,2014-01-06 07:53:00
2:53 AM,-5.1,-20.0,49,30.58,10.0,NW,13.8,-,N/A,,Clear,310,2014-01-06 08:53:00
3:53 AM,-4.0,-20.0,46,30.58,10.0,WNW,12.7,-,N/A,,Clear,290,2014-01-06 09:53:00
4:53 AM,-5.1,-18.9,51,30.58,10.0,WNW,12.7,-,N/A,,Clear,300,2014-01-06 10:53:00
5:53 AM,-2.9,-18.0,49,30.58,10.0,WNW,11.5,-,N/A,,Clear,300,2014-01-06 11:53:00
6:53 AM,-4.0,-18.0,51,30.58,10.0,West,13.8,-,N/A,,Clear,280,2014-01-06 12:53:00
7:53 AM,-4.0,-17.0,54,30.58,10.0,West,6.9,-,N/A,,Clear,280,2014-01-06 13:53:00
8:53 AM,-0.0,-16.1,47,30.60,10.0,WNW,15.0,-,N/A,,Clear,300,2014-01-06 14:53:00
9:53 AM,3.0,-16.1,41,30.60,10.0,NW,21.9,27.6,N/A,,Clear,310,2014-01-06 15:53:00
10:53 AM,7.0,-14.1,38,30.59,10.0,NW,23.0,31.1,N/A,,Clear,320,2014-01-06 16:53:00
11:53 AM,10.0,-14.1,33,30.56,10.0,NW,24.2,31.1,N/A,,Clear,320,2014-01-06 17:53:00
12:53 PM,12.0,-13.0,32,30.52,10.0,NW,19.6,-,N/A,,Clear,310,2014-01-06 18:53:00
1:53 PM,12.9,-13.0,31,30.49,10.0,WNW,20.7,26.5,N/A,,Clear,300,2014-01-06 19:53:00
2:53 PM,14.0,-11.9,31,30.48,10.0,NW,19.6,-,N/A,,Clear,320,2014-01-06 20:53:00
3:53 PM,16.0,-11.0,30,30.47,10.0,NW,15.0,-,N/A,,Clear,310,2014-01-06 21:53:00
4:53 PM,15.1,-11.0,31,30.45,10.0,NW,10.4,-,N/A,,Clear,310,2014-01-06 22:53:00
5:53 PM,10.9,-11.0,37,30.44,10.0,Calm,Calm,-,N/A,,Clear,0,2014-01-06 23:53:00
6:53 PM,9.0,-9.9,42,30.43,10.0,South,3.5,-,N/A,,Clear,170,2014-01-07 00:53:00
7:53 PM,6.1,-11.0,45,30.43,10.0,SSW,3.5,-,N/A,,Clear,200,2014-01-07 01:53:00
8:53 PM,7.0,-11.0,44,30.38,10.0,South,4.6,-,N/A,,Clear,170,2014-01-07 02:53:00
9:53 PM,6.1,-9.9,48,30.35,10.0,South,4.6,-,N/A,,Clear,190,2014-01-07 03:53:00
10:53 PM,7.0,-9.0,48,30.32,10.0,South,6.9,-,N/A,,Scattered Clouds,190,2014-01-07 04:53:00
11:53 PM,8.1,-7.1,50,30.28,10.0,South,6.9,-,N/A,,Clear,190,2014-01-07 05:53:00